Location: Newark
(39.0333°N, 125.7500°E)
Time: 20:47:24
(UTC+00:00)

Envisat - Visible Passes

Search period start: 29 January 2020 00:00
Search period end: 08 February 2020 00:00
Orbit: 764 x 766 km, 98.1° (Epoch: 29 January)

Date Brightness Start Highest point End Pass type
(mag) Time Alt. Az. Time Alt. Az. Time Alt. Az.
29 Jan 4.2 09:58:30 10° S 10:03:21 45° W 10:08:14 10° NNW visible
29 Jan 3.5 22:08:17 10° NNE 22:13:21 68° ESE 22:18:24 10° S visible
30 Jan 3.0 09:21:29 10° SSE 09:26:32 79° ENE 09:31:38 10° N visible
30 Jan 6.4 11:04:57 10° WSW 11:06:06 11° W 11:07:15 10° WNW visible
30 Jan 5.2 21:32:02 10° NE 21:36:27 29° E 21:40:50 10° SSE visible
31 Jan 5.3 10:24:48 10° SSW 10:28:58 25° W 10:33:10 10° NW visible
31 Jan 6.3 20:57:08 10° ENE 20:59:21 13° E 21:01:33 10° ESE visible
01 Feb 3.7 09:47:02 10° S 09:52:01 58° W 09:57:03 10° NNW visible
01 Feb 4.0 21:57:04 10° NNE 22:02:03 53° E 22:06:59 10° S visible
02 Feb 6.2 10:52:03 10° WSW 10:54:41 14° W 10:57:21 10° WNW visible
02 Feb 5.6 21:21:04 10° NE 21:25:05 23° E 21:29:04 10° SSE visible
03 Feb 4.9 10:13:06 10° SSW 10:17:36 32° W 10:22:09 10° NNW visible
04 Feb 3.3 09:35:40 10° S 09:40:43 75° WSW 09:45:49 10° NNW visible
04 Feb 4.5 21:45:55 10° NNE 21:50:43 41° E 21:55:29 10° SSE visible
05 Feb 5.9 10:39:49 10° SW 10:43:17 18° W 10:46:44 10° NW visible
05 Feb 6.0 21:10:14 10° NE 21:13:41 18° E 21:17:07 10° SE visible
06 Feb 4.4 10:01:29 10° SSW 10:06:15 41° W 10:11:03 10° NNW visible
06 Feb 3.3 22:11:10 10° NNE 22:16:15 75° ESE 22:21:19 10° S visible
07 Feb 3.0 09:24:21 10° SSE 09:29:26 86° ENE 09:34:32 10° NNW visible
07 Feb 5.0 21:34:49 10° NNE 21:39:22 32° E 21:43:53 10° SSE visible
